Volver al catálogo

FENGYUN 1C DEB

ActivoSSO
NORAD 29912·DEBRIS·🇨🇳 China

Lanzado May 10, 1999 desde Taiyuan Satellite Launch Center

Loading…

Próximos Pases (próximas 24 horas)

TLE

ActualizadoSource: Space-Track

Época: Sep 13, 2026, 20:50 UTC

1 29912U 99025HJ  26256.86834208  .00003355  00000-0  94555-3 0  9995
2 29912  98.7432   7.0179 0040970 117.7655   8.4725 14.45970812 20104

Sigue FENGYUN 1C DEB en tiempo real con AllMySat

Download on the App Store